RYR9KL GCLP-LEVC

Flight info

Callsign RYR9KL
Flight time 2h 35m
Altitude 36000
Route KORAL UG5 SONSO DCT NIRAL/N0441F380 UN871 OSDAM UM985 BARPA DCT XAVIR DCT PIMOS DCT RIXUR DCT PEPAS DCT ARPEX DCT KOSEL DCT BUDIT DCT ETURA DCT XEBAR DCT POBOS DCT ASTRO
Aircraft B738/M-SDE3FGILRWY/SB1

Departure

Time 2026-04-28 15:50
Airport Gran Canaria Airport (GCLP)

Arrival

Time 2026-04-28 18:26
Airport Valencia Airport (LEVC)
Time Latitude Longitude Altitude Speed Heading
2026-04-28 15:43 27.93993 -15.38660 85 ft 0 kts 201°
2026-04-28 15:44 27.93988 -15.38663 84 ft 5 kts 201°
2026-04-28 15:45 27.93919 -15.38693 85 ft 16 kts 201°
2026-04-28 15:45 27.93809 -15.38742 83 ft 17 kts 201°
2026-04-28 15:45 27.93701 -15.38789 87 ft 16 kts 201°
2026-04-28 15:45 27.93598 -15.38835 85 ft 16 kts 201°
2026-04-28 15:46 27.93497 -15.38875 85 ft 15 kts 191°
2026-04-28 15:46 27.93423 -15.38793 71 ft 20 kts 111°
2026-04-28 15:46 27.93344 -15.38781 67 ft 16 kts 202°
2026-04-28 15:46 27.93218 -15.38838 69 ft 22 kts 202°
2026-04-28 15:47 27.93067 -15.38909 72 ft 23 kts 202°
2026-04-28 15:47 27.92910 -15.38980 82 ft 27 kts 201°
2026-04-28 15:47 27.92744 -15.39055 89 ft 25 kts 202°
2026-04-28 15:47 27.92588 -15.39125 90 ft 23 kts 201°
2026-04-28 15:48 27.92440 -15.39188 96 ft 22 kts 202°
2026-04-28 15:48 27.92296 -15.39252 98 ft 22 kts 201°
2026-04-28 15:48 27.92155 -15.39306 98 ft 21 kts 185°
2026-04-28 15:48 27.92005 -15.39299 90 ft 22 kts 175°
2026-04-28 15:49 27.91926 -15.39233 87 ft 16 kts 68°
2026-04-28 15:49 27.91978 -15.39195 85 ft 9 kts 21°
2026-04-28 15:49 27.92244 -15.39080 82 ft 76 kts 22°
2026-04-28 15:49 27.92944 -15.38767 58 ft 138 kts 21°
2026-04-28 15:50 27.93901 -15.38338 544 ft 150 kts 23°
2026-04-28 15:50 27.94874 -15.37842 1153 ft 162 kts 20°
2026-04-28 15:50 27.95950 -15.37332 1611 ft 183 kts 19°
2026-04-28 15:50 27.97210 -15.36769 1870 ft 207 kts 19°
2026-04-28 15:51 27.98606 -15.36173 2275 ft 220 kts 18°
2026-04-28 15:51 28.00070 -15.35567 2775 ft 225 kts 17°
2026-04-28 15:51 28.01572 -15.34954 3195 ft 238 kts 17°
2026-04-28 15:51 28.03168 -15.34310 3547 ft 253 kts 17°
2026-04-28 15:52 28.04849 -15.33617 4244 ft 259 kts 18°
2026-04-28 15:52 28.06581 -15.32862 4952 ft 267 kts 19°
2026-04-28 15:52 28.08303 -15.32109 5707 ft 269 kts 18°
2026-04-28 15:52 28.10044 -15.31348 6597 ft 267 kts 18°
2026-04-28 15:53 28.11796 -15.30586 7265 ft 273 kts 19°
2026-04-28 15:53 28.13578 -15.29765 7908 ft 279 kts 26°
2026-04-28 15:53 28.15038 -15.28284 8628 ft 288 kts 51°
2026-04-28 15:53 28.16201 -15.26409 9330 ft 293 kts 54°
2026-04-28 15:54 28.17334 -15.24463 10000 ft 299 kts 53°
2026-04-28 15:54 28.18490 -15.22451 10388 ft 314 kts 53°
2026-04-28 15:54 28.19725 -15.20305 10544 ft 336 kts 55°
2026-04-28 15:54 28.21028 -15.18041 10911 ft 348 kts 56°
2026-04-28 15:55 28.22357 -15.15739 11585 ft 350 kts 55°
2026-04-28 15:55 28.23707 -15.13409 12124 ft 358 kts 54°
2026-04-28 15:55 28.25081 -15.11042 12797 ft 360 kts 55°
2026-04-28 15:55 28.26460 -15.08666 13513 ft 363 kts 55°
2026-04-28 15:56 28.27855 -15.06267 14177 ft 365 kts 54°
2026-04-28 15:56 28.29262 -15.03856 14823 ft 368 kts 54°
2026-04-28 15:56 28.30683 -15.01414 15464 ft 371 kts 54°
2026-04-28 15:56 28.32107 -14.98968 16189 ft 374 kts 56°
2026-04-28 15:57 28.33550 -14.96488 16759 ft 378 kts 54°
2026-04-28 15:57 28.34998 -14.93990 17462 ft 380 kts 54°
2026-04-28 15:57 28.36466 -14.91459 18013 ft 386 kts 55°
2026-04-28 15:57 28.37944 -14.88905 18662 ft 388 kts 53°
2026-04-28 15:58 28.39434 -14.86335 19193 ft 392 kts 54°
2026-04-28 15:58 28.39939 -14.85464 19390 ft 392 kts 54°
2026-04-28 15:58 28.41112 -14.83441 19844 ft 394 kts 54°
2026-04-28 15:58 28.42625 -14.80828 20356 ft 398 kts 54°
2026-04-28 15:59 28.44154 -14.78188 20892 ft 401 kts 54°
2026-04-28 15:59 28.45171 -14.76430 21255 ft 403 kts 54°
2026-04-28 15:59 28.47244 -14.72845 21920 ft 408 kts 54°
2026-04-28 15:59 28.48808 -14.70138 22418 ft 412 kts 54°
2026-04-28 16:00 28.50389 -14.67401 22895 ft 416 kts 53°
2026-04-28 16:00 28.51980 -14.64643 23378 ft 419 kts 53°
2026-04-28 16:00 28.53585 -14.61861 23808 ft 422 kts 53°
2026-04-28 16:00 28.55201 -14.59056 24206 ft 425 kts 53°
2026-04-28 16:01 28.56828 -14.56229 24602 ft 429 kts 53°
2026-04-28 16:01 28.58471 -14.53374 24932 ft 434 kts 53°
2026-04-28 16:01 28.60127 -14.50495 25341 ft 436 kts 53°
2026-04-28 16:01 28.61791 -14.47598 25758 ft 438 kts 53°
2026-04-28 16:02 28.63461 -14.44690 26153 ft 441 kts 53°
2026-04-28 16:02 28.65144 -14.41757 26513 ft 444 kts 53°
2026-04-28 16:02 28.66835 -14.38808 26876 ft 447 kts 54°
2026-04-28 16:02 28.68537 -14.35838 27245 ft 449 kts 54°
2026-04-28 16:03 28.70248 -14.32849 27590 ft 452 kts 54°
2026-04-28 16:03 28.70804 -14.31878 27711 ft 453 kts 54°
2026-04-28 16:03 28.72175 -14.29481 27992 ft 455 kts 54°
2026-04-28 16:03 28.73883 -14.26494 28331 ft 457 kts 54°
2026-04-28 16:04 28.75623 -14.23449 28665 ft 460 kts 54°
2026-04-28 16:04 28.77372 -14.20386 28990 ft 463 kts 54°
2026-04-28 16:04 28.79137 -14.17293 29279 ft 467 kts 53°
2026-04-28 16:04 28.80330 -14.15199 29602 ft 466 kts 53°
2026-04-28 16:05 28.82669 -14.11093 30091 ft 468 kts 53°
2026-04-28 16:05 28.84447 -14.07970 30312 ft 471 kts 53°
2026-04-28 16:05 28.86235 -14.04828 30556 ft 474 kts 53°
2026-04-28 16:05 28.88029 -14.01671 30851 ft 474 kts 53°
2026-04-28 16:06 28.89820 -13.98516 31246 ft 472 kts 53°
2026-04-28 16:06 28.91600 -13.95377 31640 ft 471 kts 53°
2026-04-28 16:06 28.93376 -13.92245 31990 ft 470 kts 53°
2026-04-28 16:06 28.95152 -13.89110 32298 ft 470 kts 53°
2026-04-28 16:07 28.96929 -13.85973 32626 ft 470 kts 53°
2026-04-28 16:07 28.98703 -13.82838 32924 ft 471 kts 53°
2026-04-28 16:07 29.02265 -13.76537 33511 ft 472 kts 53°
2026-04-28 16:08 29.04039 -13.73393 33886 ft 470 kts 53°
2026-04-28 16:08 29.04638 -13.72332 34013 ft 470 kts 53°
2026-04-28 16:08 29.06010 -13.69897 34224 ft 469 kts 53°
2026-04-28 16:09 29.09547 -13.63620 34734 ft 470 kts 53°
2026-04-28 16:09 29.11312 -13.60483 35025 ft 469 kts 53°
2026-04-28 16:09 29.13073 -13.57351 35302 ft 468 kts 53°
2026-04-28 16:10 29.16575 -13.51116 35921 ft 464 kts 53°
2026-04-28 16:10 29.22113 -13.41929 35971 ft 468 kts 51°
2026-04-28 16:11 29.28945 -13.30873 35970 ft 461 kts 51°
2026-04-28 16:12 29.34434 -13.21867 35971 ft 458 kts 51°
2026-04-28 16:13 29.39284 -13.13884 35970 ft 459 kts 51°
2026-04-28 16:14 29.45612 -13.03454 35972 ft 472 kts 51°
2026-04-28 16:15 29.53114 -12.91043 35960 ft 473 kts 51°
2026-04-28 16:15 29.56854 -12.84841 35958 ft 471 kts 51°
2026-04-28 16:16 29.62430 -12.75581 35954 ft 468 kts 51°
2026-04-28 16:17 29.67965 -12.66367 35955 ft 466 kts 51°
2026-04-28 16:17 29.71638 -12.60244 35954 ft 465 kts 51°
2026-04-28 16:18 29.74680 -12.55155 35956 ft 464 kts 51°
2026-04-28 16:18 29.77247 -12.50830 35955 ft 464 kts 52°
2026-04-28 16:19 29.80882 -12.44684 35978 ft 465 kts 52°
2026-04-28 16:19 29.84525 -12.38522 35961 ft 466 kts 52°
2026-04-28 16:20 29.88175 -12.32340 35941 ft 467 kts 52°
2026-04-28 16:20 29.91827 -12.26145 35941 ft 468 kts 52°
2026-04-28 16:21 29.95479 -12.19940 35949 ft 468 kts 52°
2026-04-28 16:21 29.99136 -12.13720 35942 ft 469 kts 52°
2026-04-28 16:22 30.03132 -12.07840 35944 ft 462 kts 40°
2026-04-28 16:22 30.07769 -12.02705 35941 ft 462 kts 39°
2026-04-28 16:23 30.10861 -11.99326 35941 ft 463 kts 39°
2026-04-28 16:23 30.15067 -11.94685 35938 ft 463 kts 39°
2026-04-28 16:24 30.19703 -11.89510 35936 ft 464 kts 40°
2026-04-28 16:24 30.24300 -11.84348 35935 ft 464 kts 40°
2026-04-28 16:25 30.28926 -11.79143 35937 ft 464 kts 40°
2026-04-28 16:25 30.33552 -11.73933 35935 ft 464 kts 40°
2026-04-28 16:26 30.38175 -11.68720 35929 ft 464 kts 40°
2026-04-28 16:26 30.42794 -11.63505 35934 ft 464 kts 40°
2026-04-28 16:27 30.47412 -11.58284 35937 ft 464 kts 40°
2026-04-28 16:28 30.54332 -11.50446 35927 ft 463 kts 40°
2026-04-28 16:28 30.56823 -11.47620 35929 ft 463 kts 40°
2026-04-28 16:29 30.63721 -11.39785 35929 ft 462 kts 40°
2026-04-28 16:30 30.70571 -11.31987 35936 ft 461 kts 40°
2026-04-28 16:30 30.75153 -11.26763 35939 ft 462 kts 40°
2026-04-28 16:31 30.79736 -11.21530 35940 ft 462 kts 40°
2026-04-28 16:31 30.84315 -11.16294 35924 ft 461 kts 40°
2026-04-28 16:32 30.88888 -11.11057 35924 ft 461 kts 40°
2026-04-28 16:32 30.95732 -11.03206 35927 ft 460 kts 40°
2026-04-28 16:33 30.98780 -10.99704 35924 ft 460 kts 40°
2026-04-28 16:33 31.02869 -10.95001 35921 ft 459 kts 40°
2026-04-28 16:34 31.07418 -10.89762 35954 ft 460 kts 40°
2026-04-28 16:34 31.11964 -10.84519 35922 ft 459 kts 40°
2026-04-28 16:35 31.16507 -10.79272 35917 ft 459 kts 40°
2026-04-28 16:35 31.21044 -10.74024 35917 ft 459 kts 40°
2026-04-28 16:36 31.25570 -10.68781 35915 ft 458 kts 40°
2026-04-28 16:36 31.30094 -10.63534 35915 ft 458 kts 40°
2026-04-28 16:37 31.34610 -10.58288 35915 ft 457 kts 40°
2026-04-28 16:38 31.41384 -10.50406 35923 ft 458 kts 40°
2026-04-28 16:38 31.43947 -10.47419 35918 ft 458 kts 40°
2026-04-28 16:39 31.48461 -10.42151 35913 ft 458 kts 40°
2026-04-28 16:39 31.52973 -10.36880 35912 ft 458 kts 41°
2026-04-28 16:40 31.57480 -10.31606 35913 ft 458 kts 41°
2026-04-28 16:40 31.61988 -10.26324 35907 ft 458 kts 41°
2026-04-28 16:41 31.66489 -10.21041 35927 ft 458 kts 41°
2026-04-28 16:41 31.70991 -10.15751 35916 ft 458 kts 41°
2026-04-28 16:42 31.75493 -10.10452 35914 ft 458 kts 41°
2026-04-28 16:42 31.79994 -10.05147 35907 ft 458 kts 41°
2026-04-28 16:43 31.84464 -9.99871 35908 ft 458 kts 41°
2026-04-28 16:43 31.86985 -9.96891 35905 ft 458 kts 41°
2026-04-28 16:44 31.91480 -9.91573 35901 ft 458 kts 41°
2026-04-28 16:44 31.95973 -9.86250 35906 ft 458 kts 41°
2026-04-28 16:45 32.00468 -9.80916 35910 ft 459 kts 41°
2026-04-28 16:45 32.04963 -9.75575 35904 ft 459 kts 42°
2026-04-28 16:46 32.09462 -9.70220 35903 ft 460 kts 42°
2026-04-28 16:46 32.13960 -9.64860 35901 ft 460 kts 42°
2026-04-28 16:47 32.18458 -9.59490 35901 ft 460 kts 42°
2026-04-28 16:47 32.22954 -9.54116 35900 ft 460 kts 42°
2026-04-28 16:48 32.27453 -9.48730 35919 ft 460 kts 42°
2026-04-28 16:48 32.30045 -9.45624 35895 ft 461 kts 43°
2026-04-28 16:49 32.34540 -9.40229 35899 ft 460 kts 43°
2026-04-28 16:49 32.39034 -9.34827 35894 ft 460 kts 43°
2026-04-28 16:50 32.43524 -9.29423 35895 ft 460 kts 43°
2026-04-28 16:50 32.47982 -9.24049 35894 ft 460 kts 43°
2026-04-28 16:51 32.52468 -9.18632 35887 ft 461 kts 43°
2026-04-28 16:51 32.56953 -9.13210 35918 ft 461 kts 43°
2026-04-28 16:52 32.61441 -9.07775 35885 ft 461 kts 43°
2026-04-28 16:52 32.65928 -9.02333 35888 ft 461 kts 43°
2026-04-28 16:53 32.70408 -8.96891 35882 ft 461 kts 43°
2026-04-28 16:53 32.72937 -8.93815 35881 ft 461 kts 43°
2026-04-28 16:54 32.77409 -8.88370 35881 ft 460 kts 43°
2026-04-28 16:54 32.81875 -8.82924 35883 ft 460 kts 43°
2026-04-28 16:55 32.86332 -8.77480 35878 ft 460 kts 44°
2026-04-28 16:55 32.90790 -8.72028 35881 ft 459 kts 44°
2026-04-28 16:56 32.95239 -8.66576 35859 ft 459 kts 44°
2026-04-28 16:56 32.99682 -8.61124 35864 ft 458 kts 44°
2026-04-28 16:57 33.04121 -8.55670 35864 ft 458 kts 44°
2026-04-28 16:57 33.08556 -8.50210 35875 ft 458 kts 44°
2026-04-28 16:58 33.12991 -8.44743 35866 ft 458 kts 44°
2026-04-28 16:58 33.15477 -8.41674 35863 ft 459 kts 44°
2026-04-28 16:59 33.20007 -8.36324 35854 ft 457 kts 37°
2026-04-28 16:59 33.25298 -8.32159 35853 ft 455 kts 30°
2026-04-28 17:00 33.30700 -8.28200 35869 ft 456 kts 30°
2026-04-28 17:00 33.36100 -8.24195 35867 ft 457 kts 30°
2026-04-28 17:01 33.41495 -8.20138 35878 ft 458 kts 31°
2026-04-28 17:01 33.46014 -8.16720 35856 ft 459 kts 31°
2026-04-28 17:02 33.51379 -8.12654 35856 ft 460 kts 31°
2026-04-28 17:02 33.56784 -8.08553 35857 ft 460 kts 31°
2026-04-28 17:03 33.64009 -8.03062 35863 ft 459 kts 31°
2026-04-28 17:03 33.68032 -8.00001 35860 ft 459 kts 31°
2026-04-28 17:04 33.76111 -7.93843 35857 ft 458 kts 31°
2026-04-28 17:05 33.84169 -7.87687 35858 ft 457 kts 31°
2026-04-28 17:06 33.92203 -7.81535 35858 ft 456 kts 31°
2026-04-28 17:06 34.00214 -7.75387 35867 ft 455 kts 31°
2026-04-28 17:07 34.05544 -7.71289 35856 ft 454 kts 31°
2026-04-28 17:07 34.10870 -7.67187 35856 ft 454 kts 31°
2026-04-28 17:08 34.15289 -7.63780 35857 ft 453 kts 31°
2026-04-28 17:08 34.19235 -7.60733 35857 ft 453 kts 31°
2026-04-28 17:09 34.24546 -7.56628 35854 ft 453 kts 32°
2026-04-28 17:09 34.29817 -7.52546 35851 ft 453 kts 32°
2026-04-28 17:10 34.35125 -7.48430 35851 ft 454 kts 32°
2026-04-28 17:10 34.40441 -7.44302 35846 ft 454 kts 32°
2026-04-28 17:11 34.45759 -7.40165 35846 ft 455 kts 32°
2026-04-28 17:11 34.51083 -7.36018 35847 ft 455 kts 32°
2026-04-28 17:12 34.56409 -7.31863 35847 ft 455 kts 32°
2026-04-28 17:12 34.61737 -7.27699 35843 ft 456 kts 33°
2026-04-28 17:13 34.65301 -7.24911 35839 ft 456 kts 33°
2026-04-28 17:13 34.70063 -7.21181 35828 ft 456 kts 33°
2026-04-28 17:14 34.75387 -7.17003 35835 ft 455 kts 33°
2026-04-28 17:14 34.80707 -7.12824 35849 ft 455 kts 33°
2026-04-28 17:15 34.86023 -7.08640 35837 ft 455 kts 33°
2026-04-28 17:15 34.91335 -7.04453 35838 ft 455 kts 33°
2026-04-28 17:16 34.96640 -7.00265 35835 ft 454 kts 33°
2026-04-28 17:16 35.01944 -6.96071 35835 ft 454 kts 33°
2026-04-28 17:17 35.07242 -6.91876 35836 ft 454 kts 34°
2026-04-28 17:17 35.12536 -6.87676 35831 ft 454 kts 34°
2026-04-28 17:18 35.16042 -6.84891 35832 ft 454 kts 34°
2026-04-28 17:18 35.20481 -6.81362 35823 ft 454 kts 34°
2026-04-28 17:19 35.25769 -6.77149 35832 ft 454 kts 34°
2026-04-28 17:19 35.31056 -6.72931 35825 ft 454 kts 35°
2026-04-28 17:20 35.34979 -6.68724 35835 ft 451 kts 51°
2026-04-28 17:20 35.37389 -6.64553 35827 ft 448 kts 62°
2026-04-28 17:20 35.38922 -6.61236 35832 ft 448 kts 63°
2026-04-28 17:21 35.41970 -6.54625 35826 ft 449 kts 62°
2026-04-28 17:22 35.46753 -6.44733 35817 ft 451 kts 60°
2026-04-28 17:22 35.50089 -6.38210 35828 ft 451 kts 60°
2026-04-28 17:23 35.53985 -6.30567 35824 ft 452 kts 60°
2026-04-28 17:23 35.56906 -6.24786 35834 ft 453 kts 60°
2026-04-28 17:24 35.60224 -6.18196 35834 ft 454 kts 60°
2026-04-28 17:24 35.63544 -6.11588 35847 ft 455 kts 60°
2026-04-28 17:25 35.68530 -6.01643 35826 ft 455 kts 60°
2026-04-28 17:26 35.71848 -5.95012 35833 ft 455 kts 60°
2026-04-28 17:26 35.74984 -5.88265 35839 ft 453 kts 65°
2026-04-28 17:27 35.77665 -5.81247 35835 ft 453 kts 67°
2026-04-28 17:27 35.80346 -5.74235 35839 ft 452 kts 66°
2026-04-28 17:28 35.83080 -5.67257 35835 ft 452 kts 66°
2026-04-28 17:28 35.86063 -5.59828 35858 ft 451 kts 65°
2026-04-28 17:29 35.88874 -5.52924 35855 ft 450 kts 65°
2026-04-28 17:30 35.93049 -5.42602 35856 ft 450 kts 65°
2026-04-28 17:30 35.97223 -5.32224 35851 ft 450 kts 65°
2026-04-28 17:31 36.01405 -5.21839 35868 ft 451 kts 64°
2026-04-28 17:32 36.05743 -5.11513 35870 ft 452 kts 64°
2026-04-28 17:32 36.08637 -5.04606 35874 ft 453 kts 64°
2026-04-28 17:33 36.10569 -4.99968 35875 ft 453 kts 64°
2026-04-28 17:33 36.12575 -4.95145 35882 ft 454 kts 64°
2026-04-28 17:34 36.16363 -4.87381 35880 ft 455 kts 48°
2026-04-28 17:34 36.20742 -4.81719 35878 ft 456 kts 45°
2026-04-28 17:35 36.25186 -4.76123 35875 ft 456 kts 45°
2026-04-28 17:35 36.29602 -4.70487 35880 ft 456 kts 46°
2026-04-28 17:36 36.33991 -4.64824 35888 ft 455 kts 46°
2026-04-28 17:36 36.38368 -4.59150 35888 ft 455 kts 46°
2026-04-28 17:37 36.42734 -4.53480 35905 ft 452 kts 46°
2026-04-28 17:37 36.47034 -4.47888 35880 ft 444 kts 46°
2026-04-28 17:38 36.49893 -4.44166 35890 ft 445 kts 46°
2026-04-28 17:38 36.53761 -4.39124 35888 ft 445 kts 46°
2026-04-28 17:39 36.58037 -4.33540 35862 ft 446 kts 46°
2026-04-28 17:40 36.64456 -4.25140 35873 ft 447 kts 46°
2026-04-28 17:40 36.68739 -4.19523 35886 ft 447 kts 46°
2026-04-28 17:41 36.73017 -4.13903 35884 ft 447 kts 46°
2026-04-28 17:41 36.77288 -4.08283 35886 ft 446 kts 46°
2026-04-28 17:42 36.81549 -4.02666 35885 ft 445 kts 46°
2026-04-28 17:42 36.85798 -3.97054 35881 ft 444 kts 46°
2026-04-28 17:43 36.90036 -3.91448 35887 ft 443 kts 46°
2026-04-28 17:43 36.92439 -3.88265 35881 ft 443 kts 46°
2026-04-28 17:44 36.96658 -3.82669 35885 ft 442 kts 46°
2026-04-28 17:44 37.00862 -3.77081 35881 ft 441 kts 46°
2026-04-28 17:45 37.05061 -3.71491 35886 ft 440 kts 46°
2026-04-28 17:45 37.09245 -3.65913 35872 ft 439 kts 46°
2026-04-28 17:46 37.13456 -3.60363 35886 ft 439 kts 45°
2026-04-28 17:46 37.16999 -3.55804 35887 ft 439 kts 45°
2026-04-28 17:47 37.21260 -3.50307 35887 ft 440 kts 45°
2026-04-28 17:47 37.25527 -3.44784 35884 ft 441 kts 45°
2026-04-28 17:48 37.29799 -3.39240 35882 ft 442 kts 45°
2026-04-28 17:48 37.32326 -3.35957 35874 ft 443 kts 45°
2026-04-28 17:49 37.36610 -3.30383 35881 ft 444 kts 45°
2026-04-28 17:49 37.40900 -3.24790 35871 ft 445 kts 45°
2026-04-28 17:50 37.45194 -3.19184 35860 ft 445 kts 45°
2026-04-28 17:50 37.49488 -3.13567 35870 ft 445 kts 45°
2026-04-28 17:51 37.53783 -3.07939 35865 ft 446 kts 46°
2026-04-28 17:51 37.58079 -3.02300 35879 ft 446 kts 45°
2026-04-28 17:52 37.62378 -2.96664 35878 ft 446 kts 45°
2026-04-28 17:52 37.68821 -2.88203 35878 ft 445 kts 45°
2026-04-28 17:53 37.72378 -2.83519 35886 ft 445 kts 45°
2026-04-28 17:53 37.75532 -2.79361 35883 ft 444 kts 45°
2026-04-28 17:54 37.79768 -2.73753 35902 ft 444 kts 46°
2026-04-28 17:54 37.84020 -2.68104 35900 ft 443 kts 46°
2026-04-28 17:55 37.88263 -2.62459 35907 ft 443 kts 45°
2026-04-28 17:55 37.92504 -2.56806 35905 ft 443 kts 45°
2026-04-28 17:56 37.96743 -2.51149 35902 ft 442 kts 46°
2026-04-28 17:56 38.00941 -2.45542 35590 ft 431 kts 46°
2026-04-28 17:57 38.02990 -2.42804 35224 ft 427 kts 46°
2026-04-28 17:57 38.05022 -2.40088 34893 ft 422 kts 46°
2026-04-28 17:57 38.07038 -2.37389 34516 ft 420 kts 46°
2026-04-28 17:57 38.09040 -2.34708 34152 ft 417 kts 46°
2026-04-28 17:58 38.11030 -2.32039 33767 ft 415 kts 46°
2026-04-28 17:58 38.12341 -2.30279 33487 ft 413 kts 46°
2026-04-28 17:58 38.13231 -2.29083 33312 ft 412 kts 46°
2026-04-28 17:58 38.15194 -2.26448 32952 ft 409 kts 46°
2026-04-28 17:59 38.17138 -2.23833 32582 ft 405 kts 47°
2026-04-28 17:59 38.19118 -2.21302 32199 ft 403 kts 39°
2026-04-28 17:59 38.21413 -2.19294 31856 ft 399 kts 28°
2026-04-28 17:59 38.23920 -2.17878 31640 ft 391 kts 17°
2026-04-28 18:00 38.26546 -2.16998 31313 ft 388 kts 12°
2026-04-28 18:00 38.29167 -2.16233 30981 ft 385 kts 12°
2026-04-28 18:00 38.31776 -2.15484 30641 ft 383 kts 12°
2026-04-28 18:00 38.34368 -2.14724 30311 ft 381 kts 12°
2026-04-28 18:01 38.36945 -2.13953 29965 ft 379 kts 13°
2026-04-28 18:01 38.39503 -2.13174 29573 ft 377 kts 13°
2026-04-28 18:01 38.42011 -2.12405 29206 ft 374 kts 13°
2026-04-28 18:01 38.44532 -2.11630 28856 ft 371 kts 13°
2026-04-28 18:02 38.47034 -2.10861 28496 ft 368 kts 13°
2026-04-28 18:02 38.49511 -2.10074 28141 ft 366 kts 17°
2026-04-28 18:02 38.51811 -2.08718 27795 ft 364 kts 33°
2026-04-28 18:02 38.53761 -2.06687 27469 ft 361 kts 47°
2026-04-28 18:03 38.55349 -2.04216 27144 ft 359 kts 52°
2026-04-28 18:03 38.55865 -2.03366 27037 ft 358 kts 52°
2026-04-28 18:03 38.57062 -2.01368 26747 ft 359 kts 52°
2026-04-28 18:03 38.58577 -1.98832 26413 ft 359 kts 52°
2026-04-28 18:04 38.60095 -1.96305 26076 ft 358 kts 52°
2026-04-28 18:04 38.61620 -1.93783 25733 ft 360 kts 52°
2026-04-28 18:04 38.63166 -1.91240 25404 ft 365 kts 52°
2026-04-28 18:04 38.64737 -1.88661 25016 ft 368 kts 52°
2026-04-28 18:05 38.66309 -1.86084 24679 ft 367 kts 52°
2026-04-28 18:05 38.67348 -1.84380 24423 ft 366 kts 52°
2026-04-28 18:05 38.69443 -1.80942 23948 ft 365 kts 52°
2026-04-28 18:05 38.71002 -1.78381 23592 ft 365 kts 52°
2026-04-28 18:06 38.72563 -1.75814 23085 ft 367 kts 52°
2026-04-28 18:06 38.74141 -1.73215 22550 ft 370 kts 52°
2026-04-28 18:06 38.75715 -1.70621 22140 ft 368 kts 52°
2026-04-28 18:06 38.77281 -1.68036 21778 ft 366 kts 52°
2026-04-28 18:07 38.78837 -1.65467 21419 ft 364 kts 52°
2026-04-28 18:07 38.80383 -1.62912 21071 ft 362 kts 52°
2026-04-28 18:07 38.81920 -1.60371 20727 ft 360 kts 52°
2026-04-28 18:07 38.83447 -1.57843 20402 ft 358 kts 52°
2026-04-28 18:08 38.84968 -1.55323 20048 ft 356 kts 52°
2026-04-28 18:08 38.85460 -1.54509 19939 ft 355 kts 52°
2026-04-28 18:08 38.86700 -1.52452 19660 ft 354 kts 52°
2026-04-28 18:08 38.88203 -1.49959 19328 ft 352 kts 52°
2026-04-28 18:09 38.89698 -1.47475 18994 ft 351 kts 52°
2026-04-28 18:09 38.91188 -1.44999 18655 ft 350 kts 52°
2026-04-28 18:09 38.92676 -1.42524 18308 ft 350 kts 52°
2026-04-28 18:09 38.94161 -1.40052 17951 ft 349 kts 52°
2026-04-28 18:10 38.95640 -1.37589 17588 ft 347 kts 52°
2026-04-28 18:10 38.97110 -1.35137 17237 ft 346 kts 52°
2026-04-28 18:10 38.98575 -1.32693 16896 ft 344 kts 53°
2026-04-28 18:10 39.00032 -1.30261 16565 ft 342 kts 53°
2026-04-28 18:11 39.01461 -1.27874 16236 ft 341 kts 53°
2026-04-28 18:11 39.02904 -1.25463 15894 ft 340 kts 53°
2026-04-28 18:11 39.04350 -1.23048 15511 ft 341 kts 53°
2026-04-28 18:11 39.05795 -1.20635 15188 ft 340 kts 53°
2026-04-28 18:12 39.07234 -1.18231 14836 ft 339 kts 53°
2026-04-28 18:12 39.08672 -1.15828 14515 ft 338 kts 53°
2026-04-28 18:12 39.10101 -1.13435 14175 ft 337 kts 53°
2026-04-28 18:12 39.11529 -1.11043 13848 ft 336 kts 53°
2026-04-28 18:13 39.12951 -1.08658 13491 ft 336 kts 53°
2026-04-28 18:13 39.13432 -1.07853 13362 ft 336 kts 53°
2026-04-28 18:13 39.14564 -1.05952 13097 ft 334 kts 53°
2026-04-28 18:13 39.15974 -1.03584 12770 ft 332 kts 53°
2026-04-28 18:14 39.17376 -1.01225 12459 ft 331 kts 53°
2026-04-28 18:14 39.18772 -0.98879 12123 ft 329 kts 53°
2026-04-28 18:14 39.20233 -0.96638 11884 ft 322 kts 39°
2026-04-28 18:14 39.22136 -0.95303 11648 ft 308 kts 17°
2026-04-28 18:15 39.24154 -0.94457 11249 ft 303 kts 16°
2026-04-28 18:15 39.26164 -0.93614 10729 ft 303 kts 17°
2026-04-28 18:15 39.28154 -0.92772 10361 ft 299 kts 17°
2026-04-28 18:15 39.30124 -0.91933 9963 ft 296 kts 17°
2026-04-28 18:16 39.32058 -0.91101 9604 ft 290 kts 17°
2026-04-28 18:16 39.33967 -0.90276 9160 ft 288 kts 18°
2026-04-28 18:16 39.35857 -0.89456 8744 ft 285 kts 18°
2026-04-28 18:16 39.37729 -0.88641 8305 ft 283 kts 18°
2026-04-28 18:17 39.39587 -0.87831 7886 ft 281 kts 18°
2026-04-28 18:17 39.41430 -0.87027 7466 ft 278 kts 19°
2026-04-28 18:17 39.43231 -0.86241 7102 ft 275 kts 19°
2026-04-28 18:17 39.45029 -0.85455 6742 ft 271 kts 19°
2026-04-28 18:18 39.46808 -0.84677 6390 ft 269 kts 19°
2026-04-28 18:18 39.48572 -0.83905 6008 ft 266 kts 20°
2026-04-28 18:18 39.50324 -0.83136 5637 ft 267 kts 19°
2026-04-28 18:18 39.51515 -0.82614 5399 ft 267 kts 20°
2026-04-28 18:19 39.53814 -0.81608 5075 ft 256 kts 20°
2026-04-28 18:19 39.55465 -0.80883 5041 ft 245 kts 20°
2026-04-28 18:19 39.57079 -0.80175 5002 ft 245 kts 21°
2026-04-28 18:19 39.58585 -0.79214 4842 ft 237 kts 44°
2026-04-28 18:20 39.59332 -0.77447 4710 ft 218 kts 86°
2026-04-28 18:20 39.59088 -0.75591 4462 ft 205 kts 114°
2026-04-28 18:20 39.58595 -0.73886 4194 ft 200 kts 112°
2026-04-28 18:20 39.58065 -0.72245 3946 ft 195 kts 116°
2026-04-28 18:21 39.57490 -0.70667 3687 ft 192 kts 116°
2026-04-28 18:21 39.56910 -0.69132 3448 ft 186 kts 117°
2026-04-28 18:21 39.56354 -0.67671 3185 ft 176 kts 116°
2026-04-28 18:21 39.55828 -0.66295 2951 ft 166 kts 116°
2026-04-28 18:22 39.55335 -0.65000 2753 ft 159 kts 115°
2026-04-28 18:22 39.54852 -0.63732 2540 ft 157 kts 115°
2026-04-28 18:22 39.54366 -0.62456 2323 ft 159 kts 115°
2026-04-28 18:22 39.53878 -0.61172 2077 ft 159 kts 115°
2026-04-28 18:23 39.53388 -0.59885 1880 ft 160 kts 115°
2026-04-28 18:23 39.52906 -0.58622 1674 ft 155 kts 115°
2026-04-28 18:23 39.52404 -0.57351 1493 ft 164 kts 117°
2026-04-28 18:23 39.51924 -0.56054 1250 ft 151 kts 116°
2026-04-28 18:24 39.51475 -0.54887 1062 ft 143 kts 114°
2026-04-28 18:24 39.51186 -0.54102 983 ft 146 kts 113°
2026-04-28 18:24 39.50598 -0.52505 681 ft 144 kts 116°
2026-04-28 18:24 39.50152 -0.51356 515 ft 142 kts 117°
2026-04-28 18:25 39.49720 -0.50216 315 ft 143 kts 116°
2026-04-28 18:25 39.49288 -0.49096 224 ft 123 kts 116°
2026-04-28 18:25 39.49003 -0.48344 205 ft 65 kts 116°
2026-04-28 18:26 39.48814 -0.47850 210 ft 23 kts 116°
2026-04-28 18:26 39.48746 -0.47669 205 ft 23 kts 116°
2026-04-28 18:26 39.48672 -0.47472 202 ft 26 kts 116°
2026-04-28 18:26 39.48675 -0.47234 195 ft 25 kts 56°
2026-04-28 18:27 39.48822 -0.47205 186 ft 22 kts 335°
2026-04-28 18:27 39.48909 -0.47256 192 ft 13 kts 332°
2026-04-28 18:27 39.48989 -0.47243 190 ft 6 kts 23°
2026-04-28 18:27 39.49013 -0.47230 191 ft 2 kts 21°
2026-04-28 18:28 39.49017 -0.47228 191 ft 0 kts 21°